Tracking 25995 objects as of 19-Aug-2022
HD Live streaming from Space Station
objects crossing your sky now

USA 40 R/B DEB

Track USA 40 R/B DEB now!
10-day predictions


NORAD ID: 23388
Int'l Code: 1989-061BL
Perigee: 495.5 km
Apogee: 5,692.3 km
Inclination: 57.0 °
Period: 152.7 minutes
Semi major axis: 9464 km
RCS: Unknown
Launch date: August 8, 1989
Source: United States (US)
Launch site: AIR FORCE EASTERN TEST RANGE (AFETR)

Note: This is SATELLITE DEBRIS
aabbcc
Your satellite tracking list
Your tracking list is empty




NASA's NSSDC Master Catalog

Two Line Element Set (TLE):
1 23388U 89061BL  22230.50377367  .00016447  00000-0  89214-2 0  9993
2 23388  57.0222 285.9298 2745311 248.4491  80.3717  9.42822501119899
Source of the keplerian elements: AFSPC